Regional Weather Roundup
Issued by NWS

Home | Current Version | Previous Version | Graphics & Text | Print | Product List | Glossary On
Versions: 1 2 3 4 5 6 7 8 9 10 11 12 13 14 15 16 17 18 19 20 21 22 23 24 25 26 27 28 29 30 31 32 33 34 35 36 37 38 39 40 41 42 43 44 45 46 47 48 49 50
000
ASUS43 KBIS 130002
RWRND

NORTH DAKOTA REGIONAL WEATHER ROUNDUP
NATIONAL WEATHER SERVICE BISMARCK ND
600 PM CST TUE DEC 12 2017

NOTE: "FAIR" INDICATES FEW OR NO CLOUDS BELOW 12,000 FEET WITH NO
SIGNIFICANT WEATHER AND/OR OBSTRUCTIONS TO VISIBILITY.


NDZ001>003-009>011-017-130100-
NORTHWEST NORTH DAKOTA

CITY           SKY/WX    TMP DP  RH WIND       PRES   REMARKS
WILLISTON      CLOUDY    47  18  31 W20       29.68F
6HR MIN TEMP:  40; 6HR MAX TEMP:  51;

MINOT          CLOUDY    47  22  37 SW16      29.60F
MINOT AFB      CLOUDY    43  24  47 W16       29.58F
$$

NDZ018>021-031>035-040>046-130100-
SOUTHWEST NORTH DAKOTA

CITY           SKY/WX    TMP DP  RH WIND       PRES   REMARKS
BISMARCK       CLOUDY    47  25  42 SW8       29.70F
6HR MIN TEMP:  42; 6HR MAX TEMP:  53;

DICKINSON      CLOUDY    46  20  35 W16       29.72F
GARRISON         N/A     41  22  46 W6        29.64F
6HR MIN TEMP:  40; 6HR MAX TEMP:  50;

HETTINGER ARPT CLOUDY    46  19  34 W16       29.81F
$$

NDZ004>008-012>016-024-026-027-054-130100-
NORTHEAST NORTH DAKOTA

CITY           SKY/WX    TMP DP  RH WIND       PRES   REMARKS
GRAND FORKS    PTCLDY    31  28  89 SE10      29.61F
GRND FRKS AFB  CLEAR     33  28  81 S8        29.59F
DEVILS LAKE    CLOUDY    37  28  70 SW10      29.59F
$$

NDZ022-023-025-028>030-036>039-047>053-130100-
SOUTHEAST NORTH DAKOTA

CITY           SKY/WX    TMP DP  RH WIND       PRES   REMARKS
FARGO          CLOUDY    34  29  82 S8        29.67F
6HR MIN TEMP:  32; 6HR MAX TEMP:  38;

JAMESTOWN      CLOUDY    37  29  72 SW7       29.65F
$$




USA.gov is the U.S. government's official web portal to all federal, state and local government web resources and services.